User: anonymous   Login
Location: Unspecified
(0.0000°N, 0.0000°E)
Time: 20:24:45
(UTC+00:00)
Language:

NNS O-25 - Orbit

View from above orbital plane
View from above orbital plane
View from above satellite
View from above satellite

Ground track
Ground track

The orbit data is extracted from the following two-line orbital elements,

1 19419U 88074A   17207.09397094 +.00000019 +00000-0 +17757-4 0  9990
2 19419 089.9824 018.8991 0095675 338.4212 158.8264 13.42168062415677
Epoch (UTC): 26 July 2017 02:15:19
Eccentricity: 0.0095675
inclination: 89.9824°
perigee height: 1029 km
apogee height: 1173 km
right ascension of ascending node: 18.8991°
argument of perigee: 338.4212°
revolutions per day: 13.42168062
mean anomaly at epoch: 158.8264°
orbit number at epoch: 41567

The dashed part of the orbit path shows where the satellite is in the earth's shadow,  

DLR